Starlink 1321

operational
NORAD ID: 45573 Int'l Des: 2020-025 Owner: SPXS Country: US Constellation: starlink
LEOCIRCULARSTARLINK_TYPE

Über Starlink 1321

Beschreibung wird geladen...

Live-Position

3D-Globus wird geladen...

Nächste Überflüge

Höhenverlauf

Altitude vs Time

uPlot chart will show altitude changes over time

Zweizeiliger Elementsatz

1 45573U 20025AU 25309.20774452 -.00003121 00000-0 -19073-3 0 9995
2 45573 53.0547 275.4398 0001482 83.4072 276.7086 15.06391522306444
Epoch: 5. Nov. 2025 • Age: 8 hours

Aktueller Status

Höhe 547.0 km
Geschwindigkeit 7.59 km/s
Subsatellitenpunkt 16.62°N, 46.22°E
Startdatum 22. Apr. 2020
Alter 5.5 years
Typ internet

Technische Details

Klassifizierung Payload
Masse 260.00 kg
Trockenmasse 248.00 kg
Gesamtmasse 260.00 kg
Länge 0.20 m
Durchmesser 2.80 m
Spannweite 9.00 m
Form Box + pan
Hersteller SPXS
Bus-Typ Starlink
Phasenstatus In Orbit
Besitzer/Staat SPXS/US

Große Konstellationen

Loading constellations...